GFSNIL_sfc_rhum_000.txt.gz
RH
62 61 55 52 58 61 72 73 79 78 75 73 75 77 79 84 87 88 92 91 93 96
57 58 61 60 65 72 74 68 75 76 72 71 71 75 81 86 87 90 91 91 91 94
56 59 69 71 75 71 71 71 70 69 68 68 71 75 83 86 88 90 92 86 92 92
64 66 70 73 68 68 69 66 65 62 62 61 62 68 75 82 87 91 86 81 75 74
71 66 66 66 64 67 66 67 64 60 57 56 58 62 67 77 73 70 70 71 73 71
68 77 66 60 61 60 64 54 51 52 51 54 58 60 70 70 70 69 70 70 72 71
54 60 67 65 67 72 72 72 55 47 50 58 58 65 63 64 68 68 65 70 71 72
81 76 70 68 74 80 85 72 48 47 52 59 62 60 68 66 66 67 67 69 67 63
79 78 80 76 82 86 86 54 42 49 60 62 53 72 70 67 69 65 66 72 70 71
80 82 85 86 88 87 59 37 46 56 63 70 72 74 71 70 70 73 77 77 78 70
76 81 82 90 83 76 52 47 58 73 74 74 67 72 77 78 88 84 85 83 83 78
80 82 83 82 86 89 67 58 74 74 77 85 91 77 77 88 96 92 88 77 74 72
82 84 86 87 90 85 56 70 71 79 83 74 84 74 69 74 98 96 90 84 74 74
81 84 85 88 73 56 74 79 88 84 87 82 77 83 66 65 91 92 91 85 83 82

GFSNIL_sfc_rhum_003.txt.gz
RH
58 61 62 57 59 69 73 78 83 82 74 73 73 75 78 80 84 82 85 82 86 92
58 61 68 69 75 78 81 73 82 75 70 76 72 74 79 79 81 85 86 88 89 92
68 68 72 77 78 79 74 68 71 71 83 68 65 67 76 79 81 85 91 89 89 80
70 68 74 77 78 75 71 73 73 69 63 62 61 61 65 71 76 85 81 75 74 73
68 68 74 71 74 72 66 69 67 68 68 62 56 60 65 72 74 71 70 70 72 70
67 72 78 72 66 66 69 69 78 76 62 54 56 60 68 71 68 66 68 69 70 71
79 75 69 66 69 73 77 80 79 75 59 57 59 62 65 64 66 68 66 69 71 71
79 81 79 78 77 80 80 78 80 67 54 59 60 61 65 64 69 69 70 70 67 67
75 78 84 86 86 82 84 85 59 46 60 66 56 71 68 70 71 68 69 75 71 72
82 84 88 88 94 91 88 56 50 61 68 68 70 72 73 79 80 78 86 83 83 74
82 84 88 92 92 90 82 81 59 76 76 78 80 79 81 87 92 85 82 77 79 78
82 86 91 92 92 90 90 69 78 75 79 86 80 71 70 77 91 86 81 73 74 72
84 90 93 93 94 91 62 74 70 73 78 65 78 67 62 67 98 96 89 83 76 76
82 84 84 86 76 61 78 78 84 84 83 75 72 77 61 62 94 93 92 87 85 84

GFSNIL_sfc_rhum_006.txt.gz
RH
65 72 74 76 77 75 81 82 86 84 77 78 74 80 77 75 82 81 82 78 84 88
73 70 74 75 80 86 85 79 88 80 80 83 87 80 79 82 72 81 83 86 87 91
61 64 71 80 80 83 87 80 78 81 81 75 73 68 75 79 77 83 88 87 88 78
65 68 72 77 82 87 80 77 77 72 71 72 71 74 72 70 72 82 85 74 70 70
66 68 72 76 78 79 75 73 71 75 77 79 75 70 67 70 76 72 68 67 70 69
71 75 75 72 69 72 73 74 77 80 81 72 65 64 68 74 72 66 66 69 70 70
74 79 81 81 78 77 79 87 80 80 80 70 63 64 69 67 65 67 68 71 72 73
76 78 80 85 87 88 87 80 85 87 72 61 62 61 66 62 67 71 72 72 71 68
76 80 84 88 90 93 87 85 72 56 64 69 59 74 72 78 87 76 77 82 82 80
79 83 85 88 92 94 91 78 73 68 71 78 88 78 80 88 86 86 86 74 72 67
80 82 86 91 92 92 92 92 69 79 81 89 72 70 78 75 82 76 75 72 74 73
80 84 89 93 93 93 94 84 78 77 80 69 75 66 63 70 90 84 80 71 72 71
80 85 91 91 92 92 73 71 71 74 73 63 76 62 61 68 94 96 87 86 74 76
78 82 84 83 82 70 79 77 88 85 81 72 72 73 61 62 92 90 91 87 85 82

GFSNIL_sfc_rhum_009.txt.gz
RH
42 36 34 39 40 40 43 46 60 64 62 63 62 59 62 54 52 55 51 54 56 48
40 41 40 44 43 41 51 55 67 66 62 64 59 60 55 54 56 55 57 58 57 56
40 41 44 45 46 49 53 62 68 64 64 58 60 52 56 52 53 55 53 51 59 55
41 45 46 46 48 50 57 59 63 63 58 58 56 54 54 53 50 52 53 57 56 52
45 47 48 49 50 56 56 58 59 60 59 60 63 59 50 49 44 50 52 51 50 50
46 50 50 51 55 57 59 57 57 61 71 63 58 50 46 51 53 52 49 50 53 53
50 51 54 56 58 61 64 66 64 69 70 66 52 44 48 49 48 49 50 54 56 58
50 54 55 59 60 63 70 69 64 63 46 48 47 44 50 48 53 57 57 57 53 53
52 55 57 59 65 66 68 70 57 54 54 55 50 79 80 70 56 52 48 48 46 45
52 57 59 59 57 62 66 68 69 59 57 62 61 72 77 74 47 46 47 46 45 45
51 56 58 59 57 65 65 66 68 60 56 57 55 66 63 68 53 48 47 47 49 50
52 57 59 57 61 60 62 63 62 56 57 47 49 59 61 59 61 60 56 53 52 54
53 58 58 59 59 60 58 46 52 56 49 55 54 59 59 59 66 75 65 58 53 62
55 58 58 58 54 52 50 56 68 66 60 54 55 56 60 62 73 70 66 58 54 58